Location: Charlottesville
(38.0290°N, 78.4770°W)
Time: 15:38:28
(UTC-04:00)

Tiangong 1 - Pass Details

Date: 16 October 2017
Orbit: 292 x 320 km, 42.8° (Epoch: 21 October)

Event Time Altitude Azimuth Distance (km) Brightness Sun altitude
Rises 20:26:09 0° 278° (W) 2,034 6.2 -22.7°
Reaches altitude 10° 20:28:43 10° 252° (WSW) 1,195 4.4 -23.2°
Enters shadow 20:29:43 14° 231° (SW) 1,017 3.7 -23.4°
